Simultaneous Nadir Overpasses (SNOs) Predictions

Prediction of SNOs between FY3D and METOP-C Satellite Orbit:

Table of predicted SNOs for the next 14.0 days since TLE Epoch: 7/11/2023
Index Date (FY3D) Time (FY3D) Lat,Lon (FY3D) SZA (FY3D ) Date (METOP-C) Time (METOP-C) Lat,Lon (METOP-C) SZA (METOP-C ) Distance(km) Time Diff (sec)
1 07/24/2023 19:09:57 75.56,-112.33 55.79 07/24/2023 19:11:03 75.51,-109.32 55.67 83.95 66
2 07/24/2023 20:00:40 -75.48, 55.23 124.29 07/24/2023 20:01:48 -75.39, 57.65 124.44 68.23 68
3 07/24/2023 20:51:20 75.16,-136.48 55.37 07/24/2023 20:52:33 75.11,-135.86 55.30 18.73 73
4 07/24/2023 21:42:03 -75.08, 31.06 124.71 07/24/2023 21:43:17 -75.04, 31.26 124.76 7.56 74
5 07/24/2023 22:32:49 75.05,-161.52 55.26 07/24/2023 22:33:56 75.04,-161.40 55.25 3.48 67
6 07/24/2023 23:23:33 -75.02, 5.89 124.77 07/24/2023 23:24:39 -75.02, 5.86 124.77 0.76 66
7 07/25/2023 00:14:20 75.02, 173.17 55.26 07/25/2023 00:15:18 75.02, 173.20 55.24 1.13 58
8 07/25/2023 01:05:04 -74.99, -19.43 124.77 07/25/2023 01:06:01 -75.00, -19.54 124.77 3.18 57
9 07/25/2023 01:55:51 75.00, 147.85 55.25 07/25/2023 01:56:40 75.00, 147.80 55.24 1.62 49



Historial Predications of SNOs between FY3D and METOP-C
